• In Deutschland
  • Länderverzeichnis
  • Für 7 Tage
  • Wassertemperatur
  • Satellitenkarten
  • Wetterkarte
  • Widgets
  • user-avatar
    Anmelden

    Stündliche Wetter Atar

    Heute, 19 Januar, Freitag

    Zeit Temperatur Niederschläge Wind Luftdruck Luftfeuchtigkeit
    00:00 +15°C° 0 mm 4 m/S 731 mmHg 33%
    01:00 +15°C° 0 mm 4 m/S 731 mmHg 37%
    02:00 +14°C° 0 mm 4 m/S 730 mmHg 41%
    03:00 +14°C° 0 mm 4 m/S 730 mmHg 47%
    04:00 +13°C° 0 mm 4 m/S 730 mmHg 53%
    05:00 +13°C° 0 mm 4 m/S 730 mmHg 60%
    06:00 +13°C° 0 mm 5 m/S 731 mmHg 60%
    07:00 +14°C° 0 mm 5 m/S 731 mmHg 60%
    08:00 +14°C° 0 mm 6 m/S 731 mmHg 60%
    09:00 +16°C° 0 mm 6 m/S 732 mmHg 52%
    10:00 +19°C° 0 mm 6 m/S 732 mmHg 44%
    11:00 +22°C° 0 mm 6 m/S 732 mmHg 36%
    12:00 +23°C° 0 mm 6 m/S 732 mmHg 32%
    13:00 +25°C° 0 mm 5 m/S 731 mmHg 28%
    14:00 +26°C° 0 mm 5 m/S 731 mmHg 25%
    15:00 +25°C° 0 mm 5 m/S 730 mmHg 25%
    16:00 +25°C° 0 mm 5 m/S 730 mmHg 25%
    17:00 +23°C° 0 mm 5 m/S 730 mmHg 26%
    18:00 +22°C° 0 mm 5 m/S 730 mmHg 29%
    19:00 +20°C° 0 mm 4 m/S 731 mmHg 32%
    20:00 +19°C° 0 mm 4 m/S 731 mmHg 35%
    21:00 +18°C° 0 mm 4 m/S 731 mmHg 37%
    22:00 +18°C° 0 mm 4 m/S 731 mmHg 38%
    23:00 +17°C° 0 mm 4 m/S 731 mmHg 40%

    Morgen, 20 Januar, Samstag

    Zeit Temperatur Niederschläge Wind Luftdruck Luftfeuchtigkeit
    00:00 +15°C° 0 mm 4 m/S 731 mmHg 42%
    01:00 +15°C° 0 mm 4 m/S 730 mmHg 44%
    02:00 +14°C° 0 mm 4 m/S 730 mmHg 46%
    03:00 +14°C° 0 mm 4 m/S 730 mmHg 48%
    04:00 +14°C° 0 mm 4 m/S 730 mmHg 50%
    05:00 +13°C° 0 mm 4 m/S 730 mmHg 51%
    06:00 +14°C° 0 mm 4 m/S 730 mmHg 50%
    07:00 +14°C° 0 mm 5 m/S 731 mmHg 48%
    08:00 +15°C° 0 mm 6 m/S 731 mmHg 47%
    09:00 +17°C° 0 mm 6 m/S 731 mmHg 41%
    10:00 +20°C° 0 mm 7 m/S 732 mmHg 34%
    11:00 +23°C° 0 mm 8 m/S 732 mmHg 28%
    12:00 +24°C° 0 mm 7 m/S 731 mmHg 25%
    13:00 +26°C° 0 mm 7 m/S 730 mmHg 22%
    14:00 +27°C° 0 mm 7 m/S 730 mmHg 19%
    15:00 +27°C° 0 mm 7 m/S 730 mmHg 19%
    16:00 +26°C° 0 mm 6 m/S 730 mmHg 20%
    17:00 +24°C° 0 mm 6 m/S 730 mmHg 21%
    18:00 +23°C° 0 mm 6 m/S 730 mmHg 23%
    19:00 +22°C° 0 mm 5 m/S 731 mmHg 25%
    20:00 +20°C° 0 mm 5 m/S 731 mmHg 28%
    21:00 +20°C° 0 mm 5 m/S 731 mmHg 27%
    22:00 +19°C° 0 mm 5 m/S 731 mmHg 27%
    23:00 +19°C° 0 mm 5 m/S 731 mmHg 27%

    übermorgen, 21 Januar, Sonntag

    Zeit Temperatur Niederschläge Wind Luftdruck Luftfeuchtigkeit
    00:00 +17°C° 0 mm 5 m/S 731 mmHg 27%
    01:00 +17°C° 0 mm 6 m/S 731 mmHg 27%
    02:00 +17°C° 0 mm 6 m/S 731 mmHg 27%
    03:00 +16°C° 0 mm 6 m/S 731 mmHg 26%
    04:00 +16°C° 0 mm 7 m/S 731 mmHg 25%
    05:00 +15°C° 0 mm 7 m/S 731 mmHg 25%
    06:00 +16°C° 0 mm 8 m/S 731 mmHg 23%
    07:00 +16°C° 0 mm 9 m/S 731 mmHg 21%
    08:00 +17°C° 0 mm 10 m/S 732 mmHg 20%
    09:00 +19°C° 0 mm 10 m/S 732 mmHg 17%
    10:00 +22°C° 0 mm 11 m/S 732 mmHg 15%
    11:00 +24°C° 0 mm 11 m/S 732 mmHg 13%
    12:00 +24°C° 0 mm 11 m/S 731 mmHg 12%
    13:00 +26°C° 0 mm 10 m/S 731 mmHg 11%
    14:00 +27°C° 0 mm 10 m/S 730 mmHg 10%
    15:00 +26°C° 0 mm 9 m/S 730 mmHg 11%
    16:00 +26°C° 0 mm 8 m/S 730 mmHg 12%
    17:00 +24°C° 0 mm 8 m/S 730 mmHg 12%
    18:00 +23°C° 0 mm 7 m/S 731 mmHg 14%
    19:00 +22°C° 0 mm 7 m/S 731 mmHg 16%
    20:00 +20°C° 0 mm 6 m/S 732 mmHg 17%
    21:00 +20°C° 0 mm 6 m/S 732 mmHg 18%
    22:00 +19°C° 0 mm 6 m/S 732 mmHg 20%
    23:00 +19°C° 0 mm 6 m/S 732 mmHg 21%

    22 Januar, Montag

    Zeit Temperatur Niederschläge Wind Luftdruck Luftfeuchtigkeit
    00:00 +17°C° 0 mm 7 m/S 731 mmHg 22%
    01:00 +17°C° 0 mm 7 m/S 731 mmHg 23%
    02:00 +16°C° 0 mm 7 m/S 730 mmHg 23%
    03:00 +16°C° 0 mm 7 m/S 730 mmHg 24%
    04:00 +16°C° 0 mm 7 m/S 730 mmHg 26%
    05:00 +15°C° 0 mm 7 m/S 730 mmHg 27%
    06:00 +16°C° 0 mm 8 m/S 731 mmHg 26%
    07:00 +16°C° 0 mm 9 m/S 731 mmHg 26%
    08:00 +16°C° 0 mm 9 m/S 731 mmHg 25%
    09:00 +18°C° 0 mm 9 m/S 732 mmHg 22%
    10:00 +21°C° 0 mm 10 m/S 732 mmHg 19%
    11:00 +23°C° 0 mm 10 m/S 732 mmHg 15%
    12:00 +24°C° 0 mm 10 m/S 731 mmHg 14%
    13:00 +26°C° 0 mm 9 m/S 730 mmHg 12%
    14:00 +27°C° 0 mm 9 m/S 730 mmHg 11%
    15:00 +26°C° 0 mm 8 m/S 730 mmHg 11%
    16:00 +26°C° 0 mm 8 m/S 730 mmHg 11%
    17:00 +24°C° 0 mm 7 m/S 730 mmHg 12%
    18:00 +23°C° 0 mm 7 m/S 730 mmHg 13%
    19:00 +21°C° 0 mm 6 m/S 730 mmHg 14%
    20:00 +20°C° 0 mm 6 m/S 731 mmHg 16%
    21:00 +20°C° 0 mm 6 m/S 731 mmHg 16%
    22:00 +19°C° 0 mm 6 m/S 731 mmHg 17%
    23:00 +17°C° 0 mm 6 m/S 731 mmHg 17%

    23 Januar, Dienstag

    Zeit Temperatur Niederschläge Wind Luftdruck Luftfeuchtigkeit
    00:00 +17°C° 0 mm 6 m/S 730 mmHg 18%
    01:00 +17°C° 0 mm 6 m/S 730 mmHg 19%
    02:00 +16°C° 0 mm 6 m/S 729 mmHg 19%
    03:00 +16°C° 0 mm 6 m/S 729 mmHg 20%
    04:00 +15°C° 0 mm 6 m/S 729 mmHg 22%
    05:00 +15°C° 0 mm 6 m/S 729 mmHg 23%
    06:00 +15°C° 0 mm 7 m/S 730 mmHg 22%
    07:00 +16°C° 0 mm 7 m/S 730 mmHg 22%
    08:00 +16°C° 0 mm 8 m/S 731 mmHg 22%
    09:00 +20°C° 0 mm 8 m/S 731 mmHg 19%
    10:00 +22°C° 0 mm 9 m/S 731 mmHg 15%
    11:00 +24°C° 0 mm 9 m/S 731 mmHg 12%
    12:00 +26°C° 0 mm 9 m/S 730 mmHg 11%
    13:00 +27°C° 0 mm 9 m/S 730 mmHg 10%
    14:00 +28°C° 0 mm 8 m/S 729 mmHg 9%
    15:00 +28°C° 0 mm 8 m/S 729 mmHg 9%
    16:00 +27°C° 0 mm 7 m/S 729 mmHg 9%
    17:00 +26°C° 0 mm 6 m/S 729 mmHg 10%
    18:00 +24°C° 0 mm 6 m/S 729 mmHg 11%
    19:00 +22°C° 0 mm 5 m/S 730 mmHg 13%
    20:00 +20°C° 0 mm 5 m/S 730 mmHg 14%
    21:00 +20°C° 0 mm 5 m/S 730 mmHg 15%
    22:00 +19°C° 0 mm 5 m/S 730 mmHg 15%
    23:00 +19°C° 0 mm 5 m/S 730 mmHg 16%

    24 Januar, Mittwoch

    Zeit Temperatur Niederschläge Wind Luftdruck Luftfeuchtigkeit
    00:00 +17°C° 0 mm 5 m/S 730 mmHg 16%
    01:00 +17°C° 0 mm 5 m/S 729 mmHg 17%
    02:00 +16°C° 0 mm 5 m/S 729 mmHg 17%
    03:00 +16°C° 0 mm 5 m/S 729 mmHg 17%
    04:00 +15°C° 0 mm 5 m/S 729 mmHg 18%
    05:00 +15°C° 0 mm 5 m/S 729 mmHg 18%
    06:00 +15°C° 0 mm 6 m/S 729 mmHg 18%
    07:00 +16°C° 0 mm 7 m/S 730 mmHg 17%
    08:00 +17°C° 0 mm 7 m/S 730 mmHg 16%
    09:00 +20°C° 0 mm 8 m/S 730 mmHg 14%
    10:00 +23°C° 0 mm 9 m/S 730 mmHg 11%
    11:00 +26°C° 0 mm 10 m/S 731 mmHg 8%
    12:00 +27°C° 0 mm 9 m/S 730 mmHg 8%
    13:00 +28°C° 0 mm 9 m/S 729 mmHg 7%
    14:00 +29°C° 0 mm 8 m/S 729 mmHg 6%
    15:00 +28°C° 0 mm 7 m/S 729 mmHg 7%
    16:00 +28°C° 0 mm 7 m/S 729 mmHg 7%
    17:00 +27°C° 0 mm 6 m/S 729 mmHg 7%
    18:00 +25°C° 0 mm 5 m/S 729 mmHg 9%
    19:00 +22°C° 0 mm 5 m/S 730 mmHg 10%
    20:00 +21°C° 0 mm 5 m/S 730 mmHg 11%
    21:00 +20°C° 0 mm 5 m/S 730 mmHg 12%
    22:00 +20°C° 0 mm 5 m/S 730 mmHg 12%
    23:00 +19°C° 0 mm 5 m/S 730 mmHg 13%
    Mehr zeigen